Find Starlink 5245

NORAD ID: 54168 Int'l Des: 2022-141 Owner: SPXS Country: US Constellation: starlink operational
LEOCIRCULAR

当前视图

正在加载3D地球...

About Starlink 5245

Starlink 5245 (NORAD 54168) is a starlink constellation satellite (v1.5) launched Oct 28, 2022 by SPXS of US. It operates in LEO, CIRCULAR orbit with a mass of 305.00 kg.

关于 Starlink 5245

正在加载描述...

即将过境

Passes for default location (London). Set your location on the main map for personalized predictions.

高度历史

Loading altitude history...

两行轨道根数

1 54168U 22141M 26169.68784808 .00021702 00000-0 13711-2 0 9994
2 54168 53.1593 270.7042 0002052 94.9078 265.2148 15.09008525201107
Epoch: Jun 18, 2026 • Age: 16 hours

当前状态

高度 541.8 km
速度 7.60 km/s
星下点 40.67°N, 89.75°W
发射日期 Oct 28, 2022
运行时间 3.6 years
类型 internet

技术详情

分类 Payload
质量 305.00 kg
干质量 290.00 kg
总质量 305.00 kg
长度 0.20 m
直径 2.80 m
跨度 9.00 m
形状 Box + pan
制造商 SPXS
平台类型 Starlink
阶段状态 In Orbit
所有者/国家 SPXS/US

Most Searched